FW2143 Weather Reports


time (UTC)temp
C
wind
direction
speed
KPH
gust
KPH
rain 1hr
cm
rain 24hr
cm
rain mn
cm
humidity
%
barometer
mb
20210920054334 16 61 0.0 0.0 0.00 0.00 0.00 70 1009.4
20210920053827 16 61 0.0 0.0 0.00 0.00 0.00 71 1009.4
20210920053321 16 61 0.0 0.0 0.00 0.00 0.00 70 1009.4
20210920052819 16 61 0.0 0.0 0.00 0.00 0.00 70 1009.6
20210920052324 17 61 0.0 0.0 0.00 0.00 0.00 69 1009.5
20210920051821 17 61 0.0 0.0 0.00 0.00 0.00 70 1009.6
20210920051316 17 61 0.0 0.0 0.00 0.00 0.00 69 1009.6
20210920050822 17 61 0.0 0.0 0.00 0.00 0.00 69 1009.6
20210920050321 17 61 0.0 0.0 0.00 0.00 0.00 69 1009.7
20210920045820 17 61 0.0 0.0 0.00 0.00 0.00 68 1009.7
20210920045320 17 61 0.0 0.0 0.00 0.00 0.00 68 1009.8
20210920044819 17 61 0.0 0.0 0.00 0.00 0.00 67 1009.8
20210920044321 17 61 0.0 0.0 0.00 0.00 0.00 68 1009.8
20210920043824 17 61 0.0 0.0 0.00 0.00 0.00 68 1010.0
20210920043319 17 61 0.0 0.0 0.00 0.00 0.00 68 1009.9
20210920042821 17 61 0.0 0.0 0.00 0.00 0.00 68 1010.2
20210920042305 17 61 0.0 0.0 0.00 0.00 0.00 67 1010.2
20210920041718 18 61 0.0 0.0 0.00 0.00 0.00 67 1010.2
20210920041221 18 61 0.0 0.0 0.00 0.00 0.00 66 1010.3
20210920040722 18 61 0.0 0.0 0.00 0.00 0.00 65 1010.3
20210920040226 18 61 0.0 0.0 0.00 0.00 0.00 65 1010.2
20210920035722 18 61 0.0 0.0 0.00 0.00 0.00 65 1010.0
20210920035222 18 61 0.0 0.0 0.00 0.00 0.00 65 1009.9
20210920034721 18 61 0.0 0.0 0.00 0.00 0.00 65 1010.0
20210920034200 18 61 0.0 0.0 0.00 0.00 0.00 64 1010.0
20210920033622 18 61 0.0 0.0 0.00 0.00 0.00 64 1010.2
20210920033117 18 61 0.0 0.0 0.00 0.00 0.00 64 1010.0
20210920032621 18 61 0.0 0.0 0.00 0.00 0.00 64 1009.9
20210920032121 18 61 0.0 0.0 0.00 0.00 0.00 63 1009.7
20210920031618 18 61 0.0 0.0 0.00 0.00 0.00 63 1009.6
20210920031121 18 61 0.0 0.0 0.00 0.00 0.00 63 1009.7
20210920030622 18 61 0.0 0.0 0.00 0.00 0.00 63 1009.8
20210920030118 18 61 0.0 0.0 0.00 0.00 0.00 64 1009.8
20210920025621 18 61 0.0 0.0 0.00 0.00 0.00 63 1009.8
20210920025122 18 61 0.0 0.0 0.00 0.00 0.00 64 1009.7
20210920024619 18 61 0.0 0.0 0.00 0.00 0.00 64 1009.7
20210920024123 18 61 0.0 0.0 0.00 0.00 0.00 65 1009.8
20210920023623 18 61 0.0 0.0 0.00 0.00 0.00 64 1009.7
20210920023120 18 61 0.0 0.0 0.00 0.00 0.00 64 1009.9
20210920022620 19 61 0.0 0.0 0.00 0.00 0.00 64 1009.9
20210920022120 19 61 0.0 0.0 0.00 0.00 0.00 64 1009.9
20210920021620 19 61 0.0 0.0 0.00 0.00 0.00 63 1009.9
20210920021123 20 61 0.0 0.0 0.00 0.00 0.00 61 1010.0
20210920020623 20 61 0.0 0.0 0.00 0.00 0.00 60 1010.2
20210920020119 20 61 0.0 0.0 0.00 0.00 0.00 59 1010.0
20210920015621 20 61 0.0 0.0 0.00 0.00 0.00 58 1010.2
20210920015119 20 56 0.0 0.0 0.00 0.00 0.00 58 1010.3
20210920014618 20 56 0.0 0.0 0.00 0.00 0.00 58 1010.2
20210920014121 20 319 0.0 0.0 0.00 0.00 0.00 56 1010.2
20210920013621 21 310 0.0 1.6 0.00 0.00 0.00 55 1010.4
20210920013119 21 95 0.0 1.6 0.00 0.00 0.00 56 1010.3
20210920012552 21 122 0.0 1.6 0.00 0.00 0.00 54 1010.3
20210920012043 21 122 0.0 1.6 0.00 0.00 0.00 53 1010.5
20210920011539 21 64 0.0 1.6 0.00 0.00 0.00 50 1010.3
20210920011034 22 32 0.0 1.6 0.00 0.00 0.00 49 1010.5
20210920010533 21 67 0.0 1.6 0.00 0.00 0.00 51 1010.6
20210920010023 22 123 0.0 1.6 0.00 0.00 0.00 50 1010.7
20210920005523 22 40 0.0 6.4 0.00 0.00 0.00 52 1010.8
20210920005021 22 72 0.0 6.4 0.00 0.00 0.00 52 1010.8
20210920004506 23 57 0.0 4.8 0.00 0.00 0.00 52 1010.9
20210920004002 22 28 0.0 6.4 0.00 0.00 0.00 52 1010.9
20210920003452 23 36 0.0 8.0 0.00 0.00 0.00 53 1010.9
20210920002951 23 76 1.6 8.0 0.00 0.00 0.00 54 1011.0
20210920002450 23 105 1.6 6.4 0.00 0.00 0.00 55 1010.9
20210920001951 23 38 1.6 6.4 0.00 0.00 0.00 53 1011.0
20210920001451 24 101 0.0 6.4 0.00 0.00 0.00 52 1011.2
20210920000950 24 53 1.6 11.3 0.00 0.00 0.00 52 1011.2
20210920000440 24 90 1.6 11.3 0.00 0.00 0.00 54 1011.2
20210919235936 25 45 1.6 8.0 0.00 0.00 0.00 52 1011.3
20210919235435 25 42 0.0 8.0 0.00 0.00 0.00 51 1011.4
20210919234933 26 120 0.0 6.4 0.00 0.00 0.00 50 1011.5
20210919234436 26 321 1.6 6.4 0.00 0.00 0.00 51 1011.5
20210919233931 26 67 1.6 6.4 0.00 0.00 0.00 50 1011.5
20210919233429 25 74 1.6 6.4 0.00 0.00 0.00 51 1011.5
20210919232928 26 64 1.6 11.3 0.00 0.00 0.00 49 1011.6
20210919232429 26 351 1.6 11.3 0.00 0.00 0.00 50 1011.9
20210919231927 26 19 1.6 8.0 0.00 0.00 0.00 48 1011.7
20210919231429 26 19 1.6 8.0 0.00 0.00 0.00 48 1012.0
20210919230930 26 113 0.0 6.4 0.00 0.00 0.00 47 1012.1
20210919230420 27 56 0.0 8.0 0.00 0.00 0.00 47 1011.9
20210919225920 26 275 1.6 8.0 0.00 0.00 0.00 47 1011.9
20210919225416 27 123 1.6 8.0 0.00 0.00 0.00 47 1012.2
20210919224915 27 20 1.6 4.8 0.00 0.00 0.00 46 1012.2
20210919224416 27 92 1.6 4.8 0.00 0.00 0.00 47 1012.2
20210919223919 27 306 0.0 4.8 0.00 0.00 0.00 48 1012.3
20210919223418 26 75 1.6 8.0 0.00 0.00 0.00 47 1012.3
20210919222921 26 98 1.6 8.0 0.00 0.00 0.00 46 1012.2
20210919222420 27 276 0.0 4.8 0.00 0.00 0.00 46 1012.4
20210919221921 26 346 1.6 9.7 0.00 0.00 0.00 46 1012.4
20210919221418 26 131 1.6 9.7 0.00 0.00 0.00 45 1012.4
20210919220918 27 338 1.6 11.3 0.00 0.00 0.00 45 1012.5
20210919220419 26 106 1.6 11.3 0.00 0.00 0.00 46 1012.6
20210919215921 26 346 1.6 11.3 0.00 0.00 0.00 46 1012.4
20210919215419 26 114 3.2 11.3 0.00 0.00 0.00 46 1012.4
20210919214920 26 122 1.6 9.7 0.00 0.00 0.00 46 1012.4
20210919214415 26 43 1.6 6.4 0.00 0.00 0.00 47 1012.5
20210919213919 26 108 1.6 6.4 0.00 0.00 0.00 45 1012.6
20210919213416 26 32 1.6 8.0 0.00 0.00 0.00 46 1012.7
20210919212921 26 29 1.6 8.0 0.00 0.00 0.00 46 1012.7
20210919212418 26 110 1.6 8.0 0.00 0.00 0.00 46 1012.9
20210919211918 26 208 1.6 8.0 0.00 0.00 0.00 46 1012.8
20210919211415 26 118 1.6 8.0 0.00 0.00 0.00 46 1012.8
20210919210918 26 22 1.6 11.3 0.00 0.00 0.00 47 1012.8
20210919210418 26 355 1.6 11.3 0.00 0.00 0.00 46 1013.1
20210919205921 26 324 0.0 6.4 0.00 0.00 0.00 46 1013.2
20210919205418 26 185 1.6 6.4 0.00 0.00 0.00 47 1013.0
20210919204919 26 66 3.2 9.7 0.00 0.00 0.00 47 1013.1
20210919204422 26 69 1.6 9.7 0.00 0.00 0.00 46 1013.2
20210919203923 26 356 1.6 9.7 0.00 0.00 0.00 47 1013.2
20210919203421 26 71 1.6 9.7 0.00 0.00 0.00 47 1013.2
20210919202918 26 135 1.6 9.7 0.00 0.00 0.00 48 1013.3
20210919202419 26 353 1.6 9.7 0.00 0.00 0.00 47 1013.3
20210919201918 26 189 1.6 6.4 0.00 0.00 0.00 46 1013.6
20210919201416 26 273 1.6 6.4 0.00 0.00 0.00 48 1013.4
20210919200918 26 50 1.6 14.5 0.00 0.00 0.00 48 1013.4
20210919200418 26 302 1.6 14.5 0.00 0.00 0.00 47 1013.6
20210919195921 26 40 1.6 6.4 0.00 0.00 0.00 47 1013.7
20210919195421 26 15 1.6 6.4 0.00 0.00 0.00 47 1013.8
20210919194918 26 56 0.0 6.4 0.00 0.00 0.00 46 1013.9
20210919194416 26 19 1.6 8.0 0.00 0.00 0.00 47 1013.8
20210919193919 26 41 1.6 8.0 0.00 0.00 0.00 47 1013.9
20210919193420 25 15 1.6 8.0 0.00 0.00 0.00 49 1013.8
20210919192918 26 31 1.6 8.0 0.00 0.00 0.00 47 1014.0
20210919192421 26 6 0.0 8.0 0.00 0.00 0.00 49 1014.0
20210919191912 26 56 0.0 1.6 0.00 0.00 0.00 48 1013.9
20210919191357 25 109 0.0 8.0 0.00 0.00 0.00 50 1013.8
20210919190857 25 342 1.6 8.0 0.00 0.00 0.00 50 1013.9
20210919190340 25 336 0.0 6.4 0.00 0.00 0.00 51 1013.9
20210919185843 24 57 0.0 4.8 0.00 0.00 0.00 53 1013.9
20210919185335 24 58 1.6 4.8 0.00 0.00 0.00 52 1013.9
20210919184830 24 290 0.0 4.8 0.00 0.00 0.00 52 1013.9
20210919184321 23 23 0.0 4.8 0.00 0.00 0.00 51 1013.8
20210919183820 23 20 1.6 6.4 0.00 0.00 0.00 53 1014.0
20210919183324 23 56 1.6 6.4 0.00 0.00 0.00 52 1013.9
20210919182821 23 254 0.0 8.0 0.00 0.00 0.00 54 1014.0
20210919182322 23 210 1.6 8.0 0.00 0.00 0.00 53 1014.0
20210919181804 23 84 1.6 6.4 0.00 0.00 0.00 53 1013.9
20210919181303 23 279 0.0 6.4 0.00 0.00 0.00 54 1014.2
20210919180753 23 14 1.6 8.0 0.00 0.00 0.00 53 1014.2
20210919180255 23 31 1.6 8.0 0.00 0.00 0.00 54 1014.1
20210919175753 23 282 1.6 11.3 0.00 0.00 0.00 54 1014.0
20210919175250 23 12 1.6 11.3 0.00 0.00 0.00 54 1014.0
20210919174746 23 349 1.6 6.4 0.00 0.00 0.00 52 1014.1
20210919174246 23 27 1.6 6.4 0.00 0.00 0.00 53 1014.0
20210919173742 23 359 1.6 4.8 0.00 0.00 0.00 51 1014.0
20210919173247 23 81 0.0 3.2 0.00 0.00 0.00 52 1014.0
20210919172733 23 11 0.0 4.8 0.00 0.00 0.00 50 1014.0
20210919172236 22 46 0.0 4.8 0.00 0.00 0.00 53 1013.9
20210919171718 22 100 0.0 3.2 0.00 0.00 0.00 54 1013.9
20210919171218 22 34 0.0 4.8 0.00 0.00 0.00 52 1013.9
20210919170719 22 291 0.0 4.8 0.00 0.00 0.00 52 1013.9
20210919170209 22 314 0.0 4.8 0.00 0.00 0.00 52 1014.0
20210919165640 22 77 0.0 4.8 0.00 0.00 0.00 52 1013.7
20210919165136 21 102 0.0 4.8 0.00 0.00 0.00 51 1013.8
20210919164635 21 11 0.0 4.8 0.00 0.00 0.00 50 1013.8
20210919164135 21 39 0.0 4.8 0.00 0.00 0.00 50 1013.9
20210919163618 22 131 0.0 4.8 0.00 0.00 0.00 51 1013.9
20210919163121 22 316 0.0 4.8 0.00 0.00 0.00 50 1013.8
20210919162536 21 2 0.0 3.2 0.00 0.00 0.00 50 1013.8
20210919162020 22 8 0.0 3.2 0.00 0.00 0.00 49 1013.8
20210919161520 22 345 0.0 1.6 0.00 0.00 0.00 47 1013.8
20210919161022 22 55 0.0 1.6 0.00 0.00 0.00 47 1013.7
20210919160517 21 11 0.0 1.6 0.00 0.00 0.00 49 1013.7
20210919155951 21 290 0.0 1.6 0.00 0.00 0.00 49 1013.3
20210919155449 21 290 0.0 1.6 0.00 0.00 0.00 47 1013.6
20210919154946 21 275 0.0 1.6 0.00 0.00 0.00 51 1013.4
20210919154425 20 275 0.0 1.6 0.00 0.00 0.00 51 1013.2
20210919153924 21 271 0.0 1.6 0.00 0.00 0.00 50 1013.3
20210919153418 21 112 0.0 0.0 0.00 0.00 0.00 51 1013.6
20210919152918 20 112 0.0 0.0 0.00 0.00 0.00 52 1013.3
20210919152355 20 112 0.0 0.0 0.00 0.00 0.00 54 1013.1
20210919151845 20 112 0.0 0.0 0.00 0.00 0.00 54 1013.1
20210919151340 20 112 0.0 0.0 0.00 0.00 0.00 51 1013.2
20210919150839 20 112 0.0 0.0 0.00 0.00 0.00 52 1013.3
20210919150340 20 112 0.0 0.0 0.00 0.00 0.00 54 1013.3
20210919145842 19 112 0.0 0.0 0.00 0.00 0.00 56 1013.0
20210919145320 18 112 0.0 0.0 0.00 0.00 0.00 56 1012.8
20210919144755 18 112 0.0 0.0 0.00 0.00 0.00 58 1012.7
20210919144239 17 112 0.0 0.0 0.00 0.00 0.00 63 1012.5
20210919143742 16 112 0.0 0.0 0.00 0.00 0.00 63 1012.2
20210919143238 15 112 0.0 0.0 0.00 0.00 0.00 63 1012.1
20210919142742 15 112 0.0 0.0 0.00 0.00 0.00 68 1012.0
20210919142239 14 112 0.0 0.0 0.00 0.00 0.00 69 1011.5
20210919141740 13 112 0.0 0.0 0.00 0.00 0.00 69 1011.4
20210919141229 13 112 0.0 0.0 0.00 0.00 0.00 69 1011.5
20210919140721 13 112 0.0 0.0 0.00 0.00 0.00 68 1011.2
20210919140219 13 112 0.0 0.0 0.00 0.00 0.00 65 1011.1
20210919135717 13 112 0.0 0.0 0.00 0.00 0.00 64 1010.9
20210919135204 13 112 0.0 0.0 0.00 0.00 0.00 65 1010.8
20210919134619 13 112 0.0 0.0 0.00 0.00 0.00 66 1010.9
20210919134122 13 112 0.0 0.0 0.00 0.00 0.00 67 1010.9
20210919133621 13 112 0.0 0.0 0.00 0.00 0.00 68 1010.9
20210919133119 13 112 0.0 0.0 0.00 0.00 0.00 68 1011.0
20210919132621 13 112 0.0 0.0 0.00 0.00 0.00 68 1011.0
20210919132123 13 112 0.0 0.0 0.00 0.00 0.00 67 1010.9
20210919131557 13 112 0.0 0.0 0.00 0.00 0.00 67 1011.0
20210919131040 13 112 0.0 0.0 0.00 0.00 0.00 66 1010.9
20210919130540 13 112 0.0 0.0 0.00 0.00 0.00 65 1010.9
20210919130038 13 112 0.0 0.0 0.00 0.00 0.00 65 1010.9
20210919125538 13 112 0.0 0.0 0.00 0.00 0.00 64 1010.8
20210919125028 13 112 0.0 0.0 0.00 0.00 0.00 63 1010.9
20210919124523 13 112 0.0 0.0 0.00 0.00 0.00 63 1010.8
20210919123941 13 112 0.0 0.0 0.00 0.00 0.00 62 1010.9
20210919123442 13 112 0.0 0.0 0.00 0.00 0.00 62 1010.9
20210919122934 13 112 0.0 0.0 0.00 0.00 0.00 62 1010.7
20210919122421 14 112 0.0 0.0 0.00 0.00 0.00 61 1010.9
20210919121917 13 112 0.0 0.0 0.00 0.00 0.00 61 1010.8
20210919121420 13 112 0.0 0.0 0.00 0.00 0.00 61 1010.6
20210919120849 13 112 0.0 0.0 0.00 0.00 0.00 61 1010.7
20210919120340 13 112 0.0 0.0 0.00 0.00 0.00 62 1010.8
20210919115821 13 112 0.0 0.0 0.00 0.00 0.00 62 1010.7
20210919115325 13 112 0.0 0.0 0.00 0.00 0.00 60 1010.6
20210919114820 13 112 0.0 0.0 0.00 0.00 0.00 61 1010.6
20210919114319 13 112 0.0 0.0 0.00 0.00 0.00 61 1010.5
20210919113818 13 112 0.0 0.0 0.00 0.00 0.00 62 1010.5
20210919113318 13 112 0.0 0.0 0.00 0.00 0.00 63 1010.6
20210919112823 13 112 0.0 0.0 0.00 0.00 0.00 63 1010.5
20210919112239 13 112 0.0 0.0 0.00 0.00 0.00 64 1010.6
20210919111726 13 112 0.0 0.0 0.00 0.00 0.00 62 1010.6
20210919111218 13 112 0.0 0.0 0.00 0.00 0.00 61 1010.6
20210919110641 14 112 0.0 0.0 0.00 0.00 0.00 62 1010.6
20210919110140 14 112 0.0 0.0 0.00 0.00 0.00 61 1010.6
20210919105636 14 112 0.0 0.0 0.00 0.00 0.00 60 1010.6
20210919105128 14 112 0.0 0.0 0.00 0.00 0.00 59 1010.6
20210919104624 14 112 0.0 0.0 0.00 0.00 0.00 61 1010.7
20210919104118 14 112 0.0 0.0 0.00 0.00 0.00 61 1010.8
20210919103618 14 112 0.0 0.0 0.00 0.00 0.00 62 1010.9
20210919103118 14 112 0.0 0.0 0.00 0.00 0.00 63 1010.8
20210919102554 14 112 0.0 0.0 0.00 0.00 0.00 66 1010.9
20210919102035 14 112 0.0 0.0 0.00 0.00 0.00 68 1011.0
20210919101535 14 112 0.0 0.0 0.00 0.00 0.00 70 1011.0
20210919101037 14 112 0.0 0.0 0.00 0.00 0.00 71 1011.1
20210919100524 14 112 0.0 0.0 0.00 0.00 0.00 69 1011.1
20210919095918 14 112 0.0 0.0 0.00 0.00 0.00 67 1011.2
20210919095426 14 112 0.0 0.0 0.00 0.00 0.00 67 1011.2
20210919094905 14 112 0.0 0.0 0.00 0.00 0.00 66 1011.2
20210919094401 14 112 0.0 0.0 0.00 0.00 0.00 67 1011.4
20210919093845 15 112 0.0 0.0 0.00 0.00 0.00 69 1011.4
20210919093339 15 112 0.0 0.0 0.00 0.00 0.00 69 1011.4
20210919092836 15 112 0.0 0.0 0.00 0.00 0.00 68 1011.5
20210919092333 15 112 0.0 0.0 0.00 0.00 0.00 68 1011.5
20210919091830 15 112 0.0 0.0 0.00 0.00 0.00 68 1011.6
20210919091322 15 112 0.0 0.0 0.00 0.00 0.00 68 1011.6
20210919090821 15 112 0.0 0.0 0.00 0.00 0.00 69 1011.6
20210919090302 15 112 0.0 0.0 0.00 0.00 0.00 69 1011.5
20210919085738 15 112 0.0 0.0 0.00 0.00 0.00 69 1011.7
20210919085240 15 112 0.0 0.0 0.00 0.00 0.00 69 1011.6
20210919084737 15 112 0.0 0.0 0.00 0.00 0.00 67 1011.7
20210919084220 15 112 0.0 0.0 0.00 0.00 0.00 67 1011.9
20210919083721 15 112 0.0 0.0 0.00 0.00 0.00 65 1012.0
20210919083219 15 112 0.0 0.0 0.00 0.00 0.00 63 1012.1
20210919082211 15 112 0.0 0.0 0.00 0.00 0.00 62 1012.1
20210919081641 15 112 0.0 0.0 0.00 0.00 0.00 61 1012.2
20210919081122 15 112 0.0 0.0 0.00 0.00 0.00 60 1012.2
20210919080622 15 112 0.0 0.0 0.00 0.00 0.00 59 1012.2
20210919080120 15 112 0.0 0.0 0.00 0.00 0.00 58 1012.1
20210919075618 15 112 0.0 0.0 0.00 0.00 0.00 58 1012.3
20210919075119 15 112 0.0 0.0 0.00 0.00 0.00 58 1012.2
20210919074619 15 112 0.0 0.0 0.00 0.00 0.00 56 1012.4
20210919074121 15 112 0.0 0.0 0.00 0.00 0.00 54 1012.5
20210919073602 15 112 0.0 0.0 0.00 0.00 0.00 51 1012.5
20210919073039 15 112 0.0 0.0 0.00 0.00 0.00 49 1012.4
20210919072542 15 112 0.0 0.0 0.00 0.00 0.00 47 1012.4
20210919072024 16 112 0.0 0.0 0.00 0.00 0.00 47 1012.5
20210919071524 16 112 0.0 0.0 0.00 0.00 0.00 45 1012.5
20210919071023 16 112 0.0 0.0 0.00 0.00 0.00 44 1012.4
20210919070442 15 112 0.0 0.0 0.00 0.00 0.00 40 1012.4
20210919065920 15 112 0.0 0.0 0.00 0.00 0.00 41 1012.5
20210919065421 15 112 0.0 0.0 0.00 0.00 0.00 38 1012.6
20210919064917 15 112 0.0 0.0 0.00 0.00 0.00 39 1012.6
20210919064344 15 112 0.0 0.0 0.00 0.00 0.00 40 1012.5
20210919063844 16 112 0.0 0.0 0.00 0.00 0.00 44 1012.5
20210919063318 16 112 0.0 0.0 0.00 0.00 0.00 47 1012.5
20210919062820 16 112 0.0 0.0 0.00 0.00 0.00 47 1012.6
20210919062319 15 112 0.0 0.0 0.00 0.00 0.00 48 1012.6
20210919061818 16 112 0.0 0.0 0.00 0.00 0.00 46 1012.7
20210919061320 16 112 0.0 0.0 0.00 0.00 0.00 45 1012.8
20210919060821 15 112 0.0 0.0 0.00 0.00 0.00 45 1012.7
20210919060317 15 112 0.0 0.0 0.00 0.00 0.00 46 1012.7
20210919055822 15 112 0.0 0.0 0.00 0.00 0.00 48 1012.7
20210919055321 15 112 0.0 0.0 0.00 0.00 0.00 47 1012.7
20210919054817 15 112 0.0 0.0 0.00 0.00 0.00 44 1012.7